Regional Weather Roundup
Issued by NWS

Current Version | Previous Version | Text Only | Print | Product List | Glossary On
Versions: 1 2 3 4 5 6 7 8 9 10 11 12 13 14 15 16 17 18 19 20 21 22 23 24 25 26 27 28 29 30 31 32 33 34 35 36 37 38 39 40 41 42 43 44 45 46 47 48 49 50
000
ASUS42 KTBW 240316
RWRFL
FLORIDA REGIONAL WEATHER ROUNDUP
NATIONAL WEATHER SERVICE TAMPA BAY RUSKIN FL
1100 PM EDT SAT JUN 23 2018

NOTE: "FAIR" INDICATES FEW OR NO CLOUDS BELOW 12,000 FEET WITH NO
SIGNIFICANT WEATHER AND/OR OBSTRUCTIONS TO VISIBILITY.

FLZ001>010-012>015-112-114-115-240400-
PANHANDLE FLORIDA

CITY           SKY/WX    TMP DP  RH WIND       PRES   REMARKS
PENSACOLA      FAIR      83  75  77 SW8       29.97R
PENSACOLA NAS  FAIR      82  76  81 SW7       29.96R
MILTON NAS     FAIR      79  76  90 SW5       29.97R
CRESTVIEW      FAIR      80  74  81 SW3       29.99R
DUKE FIELD     FAIR      81  76  84 SW7       29.98R
VALPARAISO     CLEAR     83  75  79 SW3       29.97R
MARY ESTHER    CLEAR     82  77  86 SW6       29.96R
TRI COUNTY     FAIR      79  75  87 S5        29.98R
PANAMA CITY    FAIR      81  76  84 S5        29.97R
TYNDALL AFB    FAIR      82  77  84 SW7       29.98R
APALACHICOLA   FAIR      83  79  88 W6        29.98R

STATION/POSITION SKY/WX   TEMP    WIND        PRES    WAVE   SWELL
                          AIR SEA DIR/SP/G            HT/PER HT/PER
                          (F)     (DEG/KT/KT) (MB)    (FT/S) (FT/S)
30.1N   87.6W              84     200/ 14/ 16 1014.6
29.2N   88.2W                 84  180/ 12/ 16 1015.2
28.8N   86.0W              84 85  200/  6/  8 1015.6R   2/ 6   2/ 6
PANAMA CITY BEAC           83 80  210/  9/ 11 1015.4R
TOWER C                    83     230/ 11/ 11 1015.9R

$$
FLZ011-016>038-118-127-128-134-139-239-240400-
NORTH FLORIDA

CITY           SKY/WX    TMP DP  RH WIND       PRES   REMARKS
MARIANNA       FAIR      82  76  81 SW8       29.97R
TALLAHASSEE    FAIR      82  75  79 W3        29.97R
PERRY          FAIR      81  77  88 SW3       30.00S
LIVE OAK       CLEAR     81  79  94 CALM      30.01R
CROSS CITY     FAIR      79  79 100 CALM      30.01R
LAKE CITY      FAIR      79  73  83 W5        30.02R
GAINESVILLE    FAIR      83  74  74 SW5       30.04R
WILLISTON      CLEAR     81  79  94 CALM      30.02R
PALATKA        CLOUDY    77  75  94 S3        30.02R
MAYPORT NAS    FAIR      83  78  85 S7        29.99S
JACKSONVILLE   FAIR      82  77  84 S6        29.99R
JAX NAS        FAIR      85  74  69 S12       30.01R
JAX CECIL      NOT AVBL
FERNANDINA BEA FAIR      83  76  79 S7        29.98S
ST AUGUSTINE   FAIR      81  72  74 SW7       30.02R
PALM COAST     FAIR      77  73  87 CALM      30.02R

STATION/POSITION SKY/WX   TEMP    WIND        PRES    WAVE   SWELL
                          AIR SEA DIR/SP/G            HT/PER HT/PER
                          (F)     (DEG/KT/KT) (MB)    (FT/S) (FT/S)
SHELL POINT      NOT AVBL
KEATON BEACH               84     250/ 11/ 13 1016.2R
CEDAR KEY                  84     260/  5/  6 1016.3R
FERNANDINA                 84 84  150/  7/ 11 1016.4R
30.7N   81.3W                 83                N/A     3/ 4
MAYPORT                    83 83  160/  4/  6 1016.1R
31.4N   80.9W              83 84  210/ 10/ 14 1015.1R   1/ 4
ST AUGUSTINE               81 79  190/  8/  9 1016.5R

$$
FLZ040-043>046-052-053-057-058-063-144-240400-
INTERIOR CENTRAL FLORIDA

CITY           SKY/WX    TMP DP  RH WIND       PRES   REMARKS
OCALA          FAIR      80  76  87 CALM      30.03R
LEESBURG       FAIR      81  74  79 S8        30.04R
SANFORD        FAIR      80  74  81 S6        30.03R
ORLANDO EXEC   FAIR      79  77  94 SE5       30.04R
ORLANDO INTL   CLOUDY    78  77  96 SE3       30.04R
WINTER HAVEN   FAIR      79  73  82 S5        30.06R
BARTOW         FAIR      73  73 100 E3        30.05R
SEBRING        FAIR      78  75  90 S3        30.05R
OKEECHOBEE     FAIR      73  73 100 W3        30.05R

$$
FLZ041-047-054-059-064-141-147-240400-
EAST CENTRAL FLORIDA

CITY           SKY/WX    TMP DP  RH WIND       PRES   REMARKS
DAYTONA BEACH  FAIR      77  76  96 S5        30.03R
DELAND         FAIR      77  75  94 S5        30.03R
CAPE CANAVERAL FAIR      76  74  91 CALM      30.03R
PATRICK AFB    FAIR      81  77  89 S3        30.04R
MELBOURNE      FAIR      81  74  79 CALM      30.04R
VERO BEACH     MOCLDY    79  76  90 SE6       30.04R
FT PIERCE      FAIR      78  77  96 CALM      30.04R

STATION/POSITION SKY/WX   TEMP    WIND        PRES    WAVE   SWELL
                          AIR SEA DIR/SP/G            HT/PER HT/PER
                          (F)     (DEG/KT/KT) (MB)    (FT/S) (FT/S)
28.5N   80.2W              83 82  150/  8/ 10 1017.1R   1/ 8
28.9N   78.5W              83 84  140/ 12/ 14 1017.6R   1/ 8   2/ 8
TRIDENT PIER               79 80  180/  3/  3 1018.7R
28.4N   80.5W                 80                N/A     1
27.5N   80.2W                 83                N/A     1/14

$$
FLZ050-056-061-142-242-148-248-149-249-151-251-155-255-
160-260-240400-
WEST CENTRAL FLORIDA

CITY           SKY/WX    TMP DP  RH WIND       PRES   REMARKS
CRYSTAL RIVER  FAIR      81  75  83 CALM      30.02R
INVERNESS      FAIR      79  79 100 CALM      30.03R
BROOKSVILLE    FAIR      81  75  82 CALM      30.03R
CLEARWATER AIR FAIR      82  73  74 CALM      30.02R
ST PETE CLEARW FAIR      82  77  84 W5        30.02R
TAMPA INTL     FAIR      84  74  71 NW5       30.03R
TAMPA EXEC     FAIR      79  73  83 SE3       30.04R
PLANT CITY     FAIR      81  73  78 SE5       30.06R
MACDILL AFB    FAIR      83  75  75 CALM      30.02R
PETER O KNIGHT CLOUDY    81  73  78 SE7       30.03R
ST PETERSBURG  FAIR      85  77  77 NW6       30.01R HX  95
SARASOTA       FAIR      84  76  76 CALM      30.01R
VENICE         FAIR      86  75  70 NW3       30.04R HX  95

STATION/POSITION SKY/WX   TEMP    WIND        PRES    WAVE   SWELL
                          AIR SEA DIR/SP/G            HT/PER HT/PER
                          (F)     (DEG/KT/KT) (MB)    (FT/S) (FT/S)
27.3N   84.2W                 85                N/A     2/ 5
CLEARWATER BEACH           84 90  270/  8/  9 1016.6R
MIDDLE TAMPA BAY           85     350/  4/  5 1016.6R
VENICE                     85 87  320/  4/  5 1017.1R

$$
FLZ066-069-070-075>078-162-262-165-265-240400-
SOUTHWEST FLORIDA AND KEYS

CITY           SKY/WX    TMP DP  RH WIND       PRES   REMARKS
PUNTA GORDA    FAIR      78  73  84 CALM      30.04S
FT MYERS       FAIR     N/A N/A N/A SE3       30.03R
SOUTHWEST INTL FAIR      77  77 100 CALM      30.04R
NAPLES         FAIR      81  81 100 CALM      30.03S
MARCO ISLAND   FAIR      79  78  97 NE6       30.05R
IMMOKALEE        N/A     77  75  94 CALM      30.06R
MARATHON       TSTM      77  73  87 CALM      30.04R FOG
KEY WEST NAS   FAIR      83  72  69 NE5       30.03S
KEY WEST INTL  FAIR      84  76  76 NE3       30.04S

STATION/POSITION SKY/WX   TEMP    WIND        PRES    WAVE   SWELL
                          AIR SEA DIR/SP/G            HT/PER HT/PER
                          (F)     (DEG/KT/KT) (MB)    (FT/S) (FT/S)
NAPLES                     81 88              1017.0R
26.0N   85.6W              84 84  110/  6/  8 1016.9
DRY TORTUGAS               85      50/  5/  6 1017.5R
SAND KEY                   84                 1017.2R
SOMBRERO KEY               84      60/ 12/ 14 1016.3R
LONG KEY                   83 91  330/  8/ 13 1017.0R
MOLASSES REEF              83 85   60/  8/  9 1017.3R

$$
FLZ067-068-071>074-168-172>174-240400-
SOUTHEAST FLORIDA

CITY           SKY/WX    TMP DP  RH WIND       PRES   REMARKS
W PALM BEACH   MOCLDY    81  75  82 E13       30.05R THUNDER
BOCA RATON     MOCLDY    81  75  83 SE8       30.04S
FT LAUDER-EXEC FAIR      82  75  79 CALM      30.04R
FT LAUDERDALE  MOCLDY    80  77  90 S3        30.04R
POMPANO BEACH  FAIR      83  74  74 CALM      30.04R
PEMBROKE PINES FAIR      80  77  90 CALM      30.06R
OPA LOCKA      FAIR      78  77  96 CALM      30.05R
MIAMI          FAIR      80  76  87 CALM      30.05R
WEST KENDALL   FAIR      79  73  82 CALM      30.04S
HOMESTEAD      FAIR      77  73  87 CALM      30.04R

STATION/POSITION SKY/WX   TEMP    WIND        PRES    WAVE   SWELL
                          AIR SEA DIR/SP/G            HT/PER HT/PER
                          (F)     (DEG/KT/KT) (MB)    (FT/S) (FT/S)
PORT EVERGLADES            81      CALM  /  2 1017.3R
VIRGINIA KEY               80 87   10/  1/  2 1017.0R
FOWEY ROCKS                83 84   50/  6/  8 1018.1R
SETTLEMENT POINT           82      20/  5/  6 1017.7S

$$




USA.gov is the U.S. government's official web portal to all federal, state and local government web resources and services.